{"data":{"norad_id":59024,"intl_designator":"2024-038B","name":"STARLINK-31006","alt_names":[],"object_type":"PAYLOAD","status":"ACTIVE","operator":null,"country":"US","launch_date":"2024-02-25","launch_site_code":"AFETR","launch_vehicle":null,"mission":null,"orbit_class":"UNKNOWN","rcs_meters":null,"size_class":null,"mass_kg":null,"dimensions":null,"purposes":["comms"],"wikipedia_slug":null,"has_3d_model":false,"image_url":null,"decayed_at":null,"tle_current":{"epoch":"2026-05-24T18:04:38.845632Z","epoch_age_seconds":90303,"freshness":"FRESH","line1":"1 59024U 24038B   26144.75322738  .00000318  00000+0  21085-4 0  9992","line2":"2 59024  42.9995 267.0449 0000939 266.5699  93.5045 15.27573163126977","mean_motion":15.27573163,"eccentricity":9.39e-5,"inclination_deg":42.9995,"raan_deg":267.0449,"arg_perigee_deg":266.5699,"mean_anomaly_deg":93.5045,"bstar":2.1085e-5,"rev_number":12697,"period_min":94.267170625856,"perigee_km":482.42530125682,"apogee_km":483.7138358504,"semimajor_km":6861.2065685536,"source":"CELESTRAK","updated_at":"2026-05-25T13:38:18.822292Z"}}}